Time,TemperatureF,DewpointF,PressureIn,WindDirection,WindDirectionDegrees,WindSpeedMPH,WindSpeedGustMPH,Humidity,HourlyPrecipIn,Conditions,Clouds,dailyrainin,SoftwareType,DateUTC
2013-06-03 00:04:00,61.1,58.8,29.96,WSW,248,0.0,1.0,92,0.00,,---,0.00,VWS V14.00,2013-06-03 05:04:00,
2013-06-03 00:09:00,60.8,58.2,29.96,WSW,249,0.0,0.0,91,0.00,,---,0.00,VWS V14.00,2013-06-03 05:09:00,
2013-06-03 00:14:00,60.6,58.3,29.96,WSW,255,0.0,0.0,92,0.00,,---,0.00,VWS V14.00,2013-06-03 05:14:00,
2013-06-03 00:19:00,60.6,58.6,29.96,West,266,0.0,0.0,93,0.00,,---,0.00,VWS V14.00,2013-06-03 05:19:00,
2013-06-03 00:24:00,60.7,58.7,29.96,WNW,287,0.0,0.0,93,0.00,,---,0.00,VWS V14.00,2013-06-03 05:24:00,
2013-06-03 00:29:00,60.6,58.6,29.96,West,281,0.0,0.0,93,0.00,,---,0.00,VWS V14.00,2013-06-03 05:29:00,
2013-06-03 00:34:00,60.5,58.5,29.96,West,270,0.0,3.0,93,0.00,,---,0.00,VWS V14.00,2013-06-03 05:34:00,
2013-06-03 00:39:00,60.5,58.5,29.96,NW,309,1.0,2.0,93,0.00,,---,0.00,VWS V14.00,2013-06-03 05:39:00,
2013-06-03 00:44:00,60.8,58.8,29.96,NNW,327,1.0,4.0,93,0.00,,---,0.00,VWS V14.00,2013-06-03 05:44:00,
2013-06-03 00:49:00,60.9,58.9,29.96,NW,321,1.0,3.0,93,0.00,,---,0.00,VWS V14.00,2013-06-03 05:49:00,
2013-06-03 00:54:00,61.0,58.7,29.96,NNW,341,0.0,2.0,92,0.00,,---,0.00,VWS V14.00,2013-06-03 05:54:00,
2013-06-03 00:59:00,61.1,58.8,29.97,WNW,285,0.0,5.0,92,0.00,,---,0.00,VWS V14.00,2013-06-03 05:59:00,
2013-06-03 01:04:00,61.0,58.7,29.96,NNE,23,0.0,2.0,92,0.00,,---,0.00,VWS V14.00,2013-06-03 06:04:00,
2013-06-03 01:09:00,60.9,58.3,29.96,NNE,23,0.0,1.0,91,0.00,,---,0.00,VWS V14.00,2013-06-03 06:09:00,
2013-06-03 01:14:00,60.8,58.5,29.97,NW,310,2.0,4.0,92,0.00,,---,0.00,VWS V14.00,2013-06-03 06:14:00,
2013-06-03 01:19:00,60.9,58.6,29.97,NW,321,0.0,4.0,92,0.00,,---,0.00,VWS V14.00,2013-06-03 06:19:00,
2013-06-03 01:24:00,61.1,58.5,29.96,NW,305,4.0,5.0,91,0.00,,---,0.00,VWS V14.00,2013-06-03 06:24:00,
2013-06-03 01:29:00,61.2,58.6,29.96,NNW,336,6.0,6.0,91,0.00,,---,0.00,VWS V14.00,2013-06-03 06:29:00,
2013-06-03 01:34:00,61.2,58.6,29.96,West,276,0.0,6.0,91,0.00,,---,0.00,VWS V14.00,2013-06-03 06:34:00,
2013-06-03 01:39:00,61.1,58.5,29.96,NNW,345,1.0,5.0,91,0.00,,---,0.00,VWS V14.00,2013-06-03 06:39:00,
2013-06-03 01:44:00,61.0,58.4,29.96,WNW,300,0.0,4.0,91,0.00,,---,0.00,VWS V14.00,2013-06-03 06:44:00,
2013-06-03 01:49:00,60.9,58.3,29.96,NW,325,1.0,4.0,91,0.00,,---,0.00,VWS V14.00,2013-06-03 06:49:00,
2013-06-03 01:54:00,60.8,58.2,29.96,NW,315,0.0,3.0,91,0.00,,---,0.00,VWS V14.00,2013-06-03 06:54:00,
2013-06-03 01:59:00,60.7,58.1,29.96,North,9,0.0,3.0,91,0.00,,---,0.00,VWS V14.00,2013-06-03 06:59:00,
2013-06-03 02:04:00,60.5,57.9,29.97,North,1,0.0,3.0,91,0.00,,---,0.00,VWS V14.00,2013-06-03 07:04:00,
2013-06-03 02:09:00,60.3,58.0,29.97,North,5,2.0,2.0,92,0.00,,---,0.00,VWS V14.00,2013-06-03 07:09:00,
2013-06-03 02:14:00,60.1,57.8,29.97,NW,325,0.0,2.0,92,0.00,,---,0.00,VWS V14.00,2013-06-03 07:14:00,
2013-06-03 02:19:00,60.0,57.7,29.96,NW,325,0.0,1.0,92,0.00,,---,0.00,VWS V14.00,2013-06-03 07:19:00,
2013-06-03 02:24:00,59.8,57.5,29.96,NNW,330,0.0,1.0,92,0.00,,---,0.00,VWS V14.00,2013-06-03 07:24:00,
2013-06-03 02:29:00,59.7,57.4,29.96,North,359,0.0,2.0,92,0.00,,---,0.00,VWS V14.00,2013-06-03 07:29:00,
2013-06-03 02:34:00,59.5,57.2,29.96,North,360,0.0,1.0,92,0.00,,---,0.00,VWS V14.00,2013-06-03 07:34:00,
2013-06-03 02:39:00,59.5,57.5,29.96,North,349,0.0,1.0,93,0.00,,---,0.00,VWS V14.00,2013-06-03 07:39:00,
2013-06-03 02:44:00,59.5,57.5,29.96,NNE,21,3.0,3.0,93,0.00,,---,0.00,VWS V14.00,2013-06-03 07:44:00,
2013-06-03 02:49:00,59.5,57.5,29.97,NNW,332,1.0,4.0,93,0.00,,---,0.00,VWS V14.00,2013-06-03 07:49:00,
2013-06-03 02:54:00,59.5,57.5,29.97,NNE,30,0.0,3.0,93,0.00,,---,0.00,VWS V14.00,2013-06-03 07:54:00,
2013-06-03 02:59:00,59.4,57.4,29.96,North,360,1.0,2.0,93,0.00,,---,0.00,VWS V14.00,2013-06-03 07:59:00,
2013-06-03 03:04:00,59.3,57.3,29.96,North,6,0.0,2.0,93,0.00,,---,0.00,VWS V14.00,2013-06-03 08:04:00,
2013-06-03 03:09:00,59.2,57.2,29.96,ENE,76,0.0,1.0,93,0.00,,---,0.00,VWS V14.00,2013-06-03 08:09:00,
2013-06-03 03:14:00,59.0,57.0,29.96,NNE,14,0.0,1.0,93,0.00,,---,0.00,VWS V14.00,2013-06-03 08:14:00,
2013-06-03 03:19:00,58.8,56.8,29.96,NNE,13,0.0,1.0,93,0.00,,---,0.00,VWS V14.00,2013-06-03 08:19:00,
2013-06-03 03:24:00,58.6,56.6,29.96,NNE,13,0.0,1.0,93,0.00,,---,0.00,VWS V14.00,2013-06-03 08:24:00,
2013-06-03 03:29:00,58.5,56.8,29.96,NNE,15,0.0,0.0,94,0.00,,---,0.00,VWS V14.00,2013-06-03 08:29:00,
2013-06-03 03:34:00,58.4,56.7,29.96,NNE,15,0.0,0.0,94,0.00,,---,0.00,VWS V14.00,2013-06-03 08:34:00,
2013-06-03 03:39:00,58.3,56.6,29.96,NNE,13,0.0,0.0,94,0.00,,---,0.00,VWS V14.00,2013-06-03 08:39:00,
2013-06-03 03:44:00,58.1,56.4,29.96,NNE,15,0.0,0.0,94,0.00,,---,0.00,VWS V14.00,2013-06-03 08:44:00,
2013-06-03 03:49:00,57.9,56.2,29.96,NNE,15,0.0,0.0,94,0.00,,---,0.00,VWS V14.00,2013-06-03 08:49:00,
2013-06-03 03:54:00,57.9,56.2,29.97,NNE,15,0.0,0.0,94,0.00,,---,0.00,VWS V14.00,2013-06-03 08:54:00,
2013-06-03 03:59:00,57.7,56.0,29.97,NNE,13,0.0,1.0,94,0.00,,---,0.00,VWS V14.00,2013-06-03 08:59:00,
2013-06-03 04:04:00,57.6,55.9,29.97,NNE,15,0.0,1.0,94,0.00,,---,0.00,VWS V14.00,2013-06-03 09:04:00,
2013-06-03 04:09:00,57.6,56.2,29.97,NNE,13,0.0,0.0,95,0.00,,---,0.00,VWS V14.00,2013-06-03 09:09:00,
2013-06-03 04:14:00,57.6,56.2,29.97,NNE,13,0.0,1.0,95,0.00,,---,0.00,VWS V14.00,2013-06-03 09:14:00,
2013-06-03 04:19:00,57.7,56.3,29.97,NW,318,1.0,1.0,95,0.00,,---,0.00,VWS V14.00,2013-06-03 09:19:00,
2013-06-03 04:24:00,57.9,56.5,29.97,NW,318,0.0,1.0,95,0.00,,---,0.00,VWS V14.00,2013-06-03 09:24:00,
2013-06-03 04:29:00,57.8,56.4,29.97,NW,318,0.0,0.0,95,0.00,,---,0.00,VWS V14.00,2013-06-03 09:29:00,
2013-06-03 04:34:00,57.8,56.4,29.97,NW,317,0.0,0.0,95,0.00,,---,0.00,VWS V14.00,2013-06-03 09:34:00,
2013-06-03 04:39:00,57.7,56.3,29.97,NW,318,0.0,0.0,95,0.00,,---,0.00,VWS V14.00,2013-06-03 09:39:00,
2013-06-03 04:44:00,57.5,56.1,29.97,NW,318,0.0,0.0,95,0.00,,---,0.00,VWS V14.00,2013-06-03 09:44:00,
2013-06-03 04:49:00,57.5,56.1,29.97,NW,318,0.0,0.0,95,0.00,,---,0.00,VWS V14.00,2013-06-03 09:49:00,
2013-06-03 04:54:00,57.4,56.0,29.97,NW,318,0.0,0.0,95,0.00,,---,0.00,VWS V14.00,2013-06-03 09:54:00,
2013-06-03 04:59:00,57.4,56.0,29.98,NW,307,0.0,0.0,95,0.00,,---,0.00,VWS V14.00,2013-06-03 09:59:00,
2013-06-03 05:05:00,57.3,55.9,29.98,NW,306,0.0,0.0,95,0.00,,---,0.00,VWS V14.00,2013-06-03 10:05:00,
2013-06-03 05:10:00,57.2,55.8,29.98,NNW,335,0.0,0.0,95,0.00,,---,0.00,VWS V14.00,2013-06-03 10:10:00,
2013-06-03 05:15:00,57.3,55.9,29.98,NNW,333,0.0,0.0,95,0.00,,---,0.00,VWS V14.00,2013-06-03 10:15:00,
2013-06-03 05:20:00,57.1,55.7,29.99,SW,218,0.0,0.0,95,0.00,,---,0.00,VWS V14.00,2013-06-03 10:20:00,
2013-06-03 05:25:00,57.0,55.6,29.99,SW,219,0.0,0.0,95,0.00,,---,0.00,VWS V14.00,2013-06-03 10:25:00,
2013-06-03 05:30:00,56.8,55.4,29.99,SW,234,0.0,0.0,95,0.00,,---,0.00,VWS V14.00,2013-06-03 10:30:00,
2013-06-03 05:35:00,56.7,55.3,29.99,WSW,245,0.0,0.0,95,0.00,,---,0.00,VWS V14.00,2013-06-03 10:35:00,
2013-06-03 05:41:00,56.7,55.3,29.99,WSW,243,0.0,0.0,95,0.00,,---,0.00,VWS V14.00,2013-06-03 10:41:00,
2013-06-03 05:46:00,56.5,55.1,29.99,WSW,243,0.0,0.0,95,0.00,,---,0.00,VWS V14.00,2013-06-03 10:46:00,
2013-06-03 05:51:00,56.6,55.5,29.99,WSW,243,0.0,0.0,96,0.00,,---,0.00,VWS V14.00,2013-06-03 10:51:00,
2013-06-03 05:56:00,56.6,55.5,30.00,WSW,250,1.0,1.0,96,0.00,,---,0.00,VWS V14.00,2013-06-03 10:56:00,
2013-06-03 06:01:00,57.0,55.9,30.00,NW,305,1.0,3.0,96,0.00,,---,0.00,VWS V14.00,2013-06-03 11:01:00,
2013-06-03 06:07:00,57.2,56.1,30.00,SW,226,1.0,2.0,96,0.00,,---,0.00,VWS V14.00,2013-06-03 11:07:00,
2013-06-03 06:12:00,57.4,56.3,30.00,SW,217,0.0,1.0,96,0.00,,---,0.00,VWS V14.00,2013-06-03 11:12:00,
2013-06-03 06:17:00,57.6,56.5,30.00,SSW,212,0.0,1.0,96,0.00,,---,0.00,VWS V14.00,2013-06-03 11:17:00,
2013-06-03 06:22:00,57.9,56.8,30.00,NE,40,0.0,1.0,96,0.00,,---,0.00,VWS V14.00,2013-06-03 11:22:00,
2013-06-03 06:27:00,58.1,57.0,30.00,NNW,329,0.0,3.0,96,0.00,,---,0.00,VWS V14.00,2013-06-03 11:27:00,
2013-06-03 06:32:00,58.4,57.3,30.00,West,281,1.0,1.0,96,0.00,,---,0.00,VWS V14.00,2013-06-03 11:32:00,
2013-06-03 06:37:00,58.7,57.6,30.01,NW,319,0.0,1.0,96,0.00,,---,0.00,VWS V14.00,2013-06-03 11:37:00,
2013-06-03 06:42:00,59.0,57.9,30.00,NNW,330,2.0,3.0,96,0.00,,---,0.00,VWS V14.00,2013-06-03 11:42:00,
2013-06-03 06:47:00,59.3,58.2,30.00,WNW,297,0.0,1.0,96,0.00,,---,0.00,VWS V14.00,2013-06-03 11:47:00,
2013-06-03 06:53:00,59.7,58.3,30.00,West,277,2.0,2.0,95,0.00,,---,0.00,VWS V14.00,2013-06-03 11:53:00,
2013-06-03 06:58:00,60.0,58.6,30.00,WNW,294,1.0,5.0,95,0.00,,---,0.00,VWS V14.00,2013-06-03 11:58:00,
2013-06-03 07:03:00,60.3,58.6,30.00,NW,325,0.0,2.0,94,0.00,,---,0.00,VWS V14.00,2013-06-03 12:03:00,
2013-06-03 07:08:00,60.4,58.7,30.00,NNW,343,2.0,4.0,94,0.00,,---,0.00,VWS V14.00,2013-06-03 12:08:00,
2013-06-03 07:13:00,60.6,58.9,30.01,WNW,293,0.0,2.0,94,0.00,,---,0.00,VWS V14.00,2013-06-03 12:13:00,
2013-06-03 07:18:00,60.9,58.9,30.01,NW,326,0.0,3.0,93,0.00,,---,0.00,VWS V14.00,2013-06-03 12:18:00,
2013-06-03 07:23:00,61.2,59.2,30.01,NNE,25,1.0,2.0,93,0.00,,---,0.00,VWS V14.00,2013-06-03 12:23:00,
2013-06-03 07:29:00,61.4,59.4,30.01,NNW,327,2.0,5.0,93,0.00,,---,0.00,VWS V14.00,2013-06-03 12:29:00,
2013-06-03 07:34:00,61.7,59.4,30.01,NNW,347,1.0,4.0,92,0.00,,---,0.00,VWS V14.00,2013-06-03 12:34:00,
2013-06-03 07:39:00,62.0,59.3,30.02,North,6,2.0,4.0,91,0.00,,---,0.00,VWS V14.00,2013-06-03 12:39:00,
2013-06-03 07:44:00,62.2,59.5,30.02,NNE,23,4.0,5.0,91,0.00,,---,0.00,VWS V14.00,2013-06-03 12:44:00,
2013-06-03 07:49:00,62.4,59.4,30.02,NNW,329,4.0,6.0,90,0.00,,---,0.00,VWS V14.00,2013-06-03 12:49:00,
2013-06-03 07:54:00,62.5,59.5,30.02,NE,36,3.0,9.0,90,0.00,,---,0.00,VWS V14.00,2013-06-03 12:54:00,
2013-06-03 07:59:00,62.5,59.5,30.03,NNW,340,4.0,8.0,90,0.00,,---,0.00,VWS V14.00,2013-06-03 12:59:00,
2013-06-03 08:04:00,62.7,59.7,30.03,WNW,302,1.0,6.0,90,0.00,,---,0.00,VWS V14.00,2013-06-03 13:04:00,
2013-06-03 08:09:00,62.9,59.6,30.03,NW,316,2.0,6.0,89,0.00,,---,0.00,VWS V14.00,2013-06-03 13:09:00,
2013-06-03 08:14:00,63.0,59.7,30.03,WNW,292,1.0,5.0,89,0.00,,---,0.00,VWS V14.00,2013-06-03 13:14:00,
2013-06-03 08:19:00,63.0,59.7,30.04,NNW,330,2.0,8.0,89,0.00,,---,0.00,VWS V14.00,2013-06-03 13:19:00,
2013-06-03 08:24:00,63.3,60.0,30.04,NNW,342,5.0,6.0,89,0.00,,---,0.00,VWS V14.00,2013-06-03 13:24:00,
2013-06-03 08:29:00,63.4,60.1,30.04,NNW,345,0.0,1.0,89,0.00,,---,0.00,VWS V14.00,2013-06-03 13:29:00,
2013-06-03 08:34:00,63.7,60.4,30.04,West,278,1.0,1.0,89,0.00,,---,0.00,VWS V14.00,2013-06-03 13:34:00,
2013-06-03 08:39:00,64.3,61.0,30.04,NW,314,3.0,3.0,89,0.00,,---,0.00,VWS V14.00,2013-06-03 13:39:00,
2013-06-03 08:45:00,64.5,60.9,30.05,NNW,339,1.0,2.0,88,0.00,,---,0.00,VWS V14.00,2013-06-03 13:45:00,
2013-06-03 08:50:00,64.6,60.7,30.05,North,9,4.0,4.0,87,0.00,,---,0.00,VWS V14.00,2013-06-03 13:50:00,
2013-06-03 08:55:00,65.0,61.0,30.05,NNE,30,3.0,3.0,87,0.00,,---,0.00,VWS V14.00,2013-06-03 13:55:00,
2013-06-03 09:00:00,65.4,61.1,30.05,NNE,19,0.0,1.0,86,0.00,,---,0.00,VWS V14.00,2013-06-03 14:00:00,
2013-06-03 09:05:00,66.0,61.0,30.05,North,4,2.0,5.0,84,0.00,,---,0.00,VWS V14.00,2013-06-03 14:05:00,
2013-06-03 09:10:00,66.4,61.4,30.05,WNW,297,3.0,4.0,84,0.00,,---,0.00,VWS V14.00,2013-06-03 14:10:00,
2013-06-03 09:15:00,66.6,62.0,30.06,NNW,336,3.0,5.0,85,0.00,,---,0.00,VWS V14.00,2013-06-03 14:15:00,
2013-06-03 09:20:00,67.8,63.5,30.06,NNW,338,2.0,3.0,86,0.00,,---,0.00,VWS V14.00,2013-06-03 14:20:00,
2013-06-03 09:25:00,67.7,61.7,30.05,NW,325,3.0,7.0,81,0.00,,---,0.00,VWS V14.00,2013-06-03 14:25:00,
2013-06-03 09:30:00,67.5,61.8,30.05,NNW,343,0.0,3.0,82,0.00,,---,0.00,VWS V14.00,2013-06-03 14:30:00,
2013-06-03 09:35:00,68.3,62.6,30.05,North,6,1.0,5.0,82,0.00,,---,0.00,VWS V14.00,2013-06-03 14:35:00,
2013-06-03 09:40:00,68.8,62.4,30.05,North,349,1.0,3.0,80,0.00,,---,0.00,VWS V14.00,2013-06-03 14:40:00,
2013-06-03 09:45:00,69.4,62.6,30.04,NE,36,9.0,10.0,79,0.00,,---,0.00,VWS V14.00,2013-06-03 14:45:00,
2013-06-03 09:51:00,69.0,61.5,30.05,West,264,4.0,5.0,77,0.00,,---,0.00,VWS V14.00,2013-06-03 14:51:00,
2013-06-03 09:56:00,69.3,61.4,30.05,NNE,32,7.0,11.0,76,0.00,,---,0.00,VWS V14.00,2013-06-03 14:56:00,
2013-06-03 10:01:00,68.9,61.8,30.04,NNE,19,4.0,9.0,78,0.00,,---,0.00,VWS V14.00,2013-06-03 15:01:00,
2013-06-03 10:06:00,69.4,62.6,30.04,NNE,21,3.0,9.0,79,0.00,,---,0.00,VWS V14.00,2013-06-03 15:06:00,
2013-06-03 10:11:00,69.6,62.1,30.04,NNW,335,4.0,6.0,77,0.00,,---,0.00,VWS V14.00,2013-06-03 15:11:00,
2013-06-03 10:16:00,69.6,61.0,30.04,WNW,299,3.0,6.0,74,0.00,,---,0.00,VWS V14.00,2013-06-03 15:16:00,
2013-06-03 10:21:00,69.8,61.2,30.04,North,11,2.0,10.0,74,0.00,,---,0.00,VWS V14.00,2013-06-03 15:21:00,
2013-06-03 10:27:00,70.3,62.0,30.04,NNE,14,2.0,6.0,75,0.00,,---,0.00,VWS V14.00,2013-06-03 15:27:00,
2013-06-03 10:32:00,70.5,61.4,30.03,North,8,5.0,11.0,73,0.00,,---,0.00,VWS V14.00,2013-06-03 15:32:00,
2013-06-03 10:37:00,70.9,61.8,30.03,WNW,302,1.0,8.0,73,0.00,,---,0.00,VWS V14.00,2013-06-03 15:37:00,
2013-06-03 10:42:00,71.6,62.1,30.03,North,5,4.0,7.0,72,0.00,,---,0.00,VWS V14.00,2013-06-03 15:42:00,
2013-06-03 10:47:00,71.7,61.8,30.03,NNE,32,4.0,7.0,71,0.00,,---,0.00,VWS V14.00,2013-06-03 15:47:00,
2013-06-03 10:52:00,71.0,61.5,30.04,NNW,330,4.0,9.0,72,0.00,,---,0.00,VWS V14.00,2013-06-03 15:52:00,
2013-06-03 10:57:00,70.9,61.0,30.03,North,354,9.0,10.0,71,0.00,,---,0.00,VWS V14.00,2013-06-03 15:57:00,
2013-06-03 11:02:00,71.3,61.4,30.03,NNW,332,1.0,9.0,71,0.00,,---,0.00,VWS V14.00,2013-06-03 16:02:00,
2013-06-03 11:07:00,71.0,60.3,30.03,NNW,338,1.0,9.0,69,0.00,,---,0.00,VWS V14.00,2013-06-03 16:07:00,
2013-06-03 11:13:00,71.6,62.1,30.02,NE,34,5.0,8.0,72,0.00,,---,0.00,VWS V14.00,2013-06-03 16:13:00,
2013-06-03 11:18:00,72.3,60.7,30.02,NNW,334,2.0,8.0,67,0.00,,---,0.00,VWS V14.00,2013-06-03 16:18:00,
2013-06-03 11:23:00,71.8,59.4,30.03,NE,36,4.0,6.0,65,0.00,,---,0.00,VWS V14.00,2013-06-03 16:23:00,
2013-06-03 11:28:00,71.9,60.4,30.02,NNW,340,0.0,4.0,67,0.00,,---,0.00,VWS V14.00,2013-06-03 16:28:00,
2013-06-03 11:33:00,72.6,61.4,30.02,NNE,15,4.0,9.0,68,0.00,,---,0.00,VWS V14.00,2013-06-03 16:33:00,
2013-06-03 11:38:00,72.1,59.7,30.02,NNE,32,3.0,7.0,65,0.00,,---,0.00,VWS V14.00,2013-06-03 16:38:00,
2013-06-03 11:43:00,71.9,59.5,30.02,NNE,20,6.0,6.0,65,0.00,,---,0.00,VWS V14.00,2013-06-03 16:43:00,
2013-06-03 11:48:00,71.9,60.4,30.02,NNW,332,3.0,5.0,67,0.00,,---,0.00,VWS V14.00,2013-06-03 16:48:00,
2013-06-03 11:53:00,72.2,59.8,30.02,North,10,3.0,5.0,65,0.00,,---,0.00,VWS V14.00,2013-06-03 16:53:00,
2013-06-03 11:58:00,72.5,59.6,30.02,NNE,30,5.0,8.0,64,0.00,,---,0.00,VWS V14.00,2013-06-03 16:58:00,
2013-06-03 12:03:00,72.4,58.7,30.01,NE,51,4.0,9.0,62,0.00,,---,0.00,VWS V14.00,2013-06-03 17:03:00,
2013-06-03 12:09:00,72.6,60.6,30.01,NNE,16,1.0,7.0,66,0.00,,---,0.00,VWS V14.00,2013-06-03 17:09:00,
2013-06-03 12:14:00,73.5,59.2,30.02,NNW,342,7.0,8.0,61,0.00,,---,0.00,VWS V14.00,2013-06-03 17:14:00,
2013-06-03 12:19:00,73.3,59.5,30.02,NNE,13,1.0,7.0,62,0.00,,---,0.00,VWS V14.00,2013-06-03 17:19:00,
2013-06-03 12:24:00,72.6,57.9,30.02,NNW,345,1.0,10.0,60,0.00,,---,0.00,VWS V14.00,2013-06-03 17:24:00,
2013-06-03 12:29:00,73.5,61.0,30.01,NW,326,4.0,6.0,65,0.00,,---,0.00,VWS V14.00,2013-06-03 17:29:00,
2013-06-03 12:34:00,74.0,60.2,30.01,NNW,340,5.0,10.0,62,0.00,,---,0.00,VWS V14.00,2013-06-03 17:34:00,
2013-06-03 12:39:00,74.2,58.5,30.01,WNW,290,2.0,10.0,58,0.00,,---,0.00,VWS V14.00,2013-06-03 17:39:00,
2013-06-03 12:44:00,74.6,57.9,30.01,NNE,21,7.0,11.0,56,0.00,,---,0.00,VWS V14.00,2013-06-03 17:44:00,
2013-06-03 12:49:00,73.9,58.7,30.01,NNE,22,6.0,8.0,59,0.00,,---,0.00,VWS V14.00,2013-06-03 17:49:00,
2013-06-03 12:54:00,73.5,57.8,30.01,NNW,342,9.0,9.0,58,0.00,,---,0.00,VWS V14.00,2013-06-03 17:54:00,
2013-06-03 12:59:00,72.9,57.8,30.01,NNW,330,4.0,10.0,59,0.00,,---,0.00,VWS V14.00,2013-06-03 17:59:00,
2013-06-03 13:04:00,73.1,57.0,30.01,WNW,289,0.0,1.0,57,0.00,,---,0.00,VWS V14.00,2013-06-03 18:04:00,
2013-06-03 13:09:00,73.7,58.0,30.01,NNE,21,3.0,3.0,58,0.00,,---,0.00,VWS V14.00,2013-06-03 18:09:00,
2013-06-03 13:15:00,73.4,57.3,30.01,WSW,256,2.0,4.0,57,0.00,,---,0.00,VWS V14.00,2013-06-03 18:15:00,
2013-06-03 13:20:00,72.8,58.1,30.01,NW,321,0.0,2.0,60,0.00,,---,0.00,VWS V14.00,2013-06-03 18:20:00,
2013-06-03 13:25:00,73.3,57.7,30.00,NNW,330,7.0,7.0,58,0.00,,---,0.00,VWS V14.00,2013-06-03 18:25:00,
2013-06-03 13:30:00,74.1,58.4,30.00,NNW,329,3.0,4.0,58,0.00,,---,0.00,VWS V14.00,2013-06-03 18:30:00,
2013-06-03 13:35:00,74.2,57.5,30.00,NNE,17,9.0,9.0,56,0.00,,---,0.00,VWS V14.00,2013-06-03 18:35:00,
2013-06-03 13:40:00,74.4,59.2,30.00,NW,307,3.0,7.0,59,0.00,,---,0.00,VWS V14.00,2013-06-03 18:40:00,
2013-06-03 13:45:00,74.1,57.4,30.00,NW,308,3.0,6.0,56,0.00,,---,0.00,VWS V14.00,2013-06-03 18:45:00,
2013-06-03 13:50:00,74.5,57.3,30.00,WNW,285,3.0,7.0,55,0.00,,---,0.00,VWS V14.00,2013-06-03 18:50:00,
2013-06-03 13:55:00,75.0,57.2,30.00,West,260,3.0,9.0,54,0.00,,---,0.00,VWS V14.00,2013-06-03 18:55:00,
2013-06-03 14:00:00,75.3,59.0,30.00,WNW,303,4.0,7.0,57,0.00,,---,0.00,VWS V14.00,2013-06-03 19:00:00,
2013-06-03 14:05:00,75.2,58.4,30.00,North,359,2.0,9.0,56,0.00,,---,0.00,VWS V14.00,2013-06-03 19:05:00,
2013-06-03 14:10:00,74.8,57.1,30.00,NW,312,6.0,9.0,54,0.00,,---,0.00,VWS V14.00,2013-06-03 19:10:00,
2013-06-03 14:15:00,74.7,57.0,30.00,NNE,33,1.0,9.0,54,0.00,,---,0.00,VWS V14.00,2013-06-03 19:15:00,
2013-06-03 14:20:00,74.3,57.1,30.00,WNW,303,4.0,8.0,55,0.00,,---,0.00,VWS V14.00,2013-06-03 19:20:00,
2013-06-03 14:25:00,73.7,57.5,30.00,NNW,340,3.0,9.0,57,0.00,,---,0.00,VWS V14.00,2013-06-03 19:25:00,
2013-06-03 14:30:00,73.3,56.7,30.00,North,8,3.0,4.0,56,0.00,,---,0.00,VWS V14.00,2013-06-03 19:30:00,
2013-06-03 14:35:00,73.9,59.2,30.00,NW,325,4.0,4.0,60,0.00,,---,0.00,VWS V14.00,2013-06-03 19:35:00,
2013-06-03 14:40:00,75.0,56.7,30.00,West,278,6.0,9.0,53,0.00,,---,0.00,VWS V14.00,2013-06-03 19:40:00,
2013-06-03 14:46:00,74.7,57.0,30.00,NW,323,4.0,7.0,54,0.00,,---,0.00,VWS V14.00,2013-06-03 19:46:00,
2013-06-03 14:51:00,74.8,57.1,30.00,West,277,4.0,11.0,54,0.00,,---,0.00,VWS V14.00,2013-06-03 19:51:00,
2013-06-03 14:56:00,75.5,56.7,29.99,NW,316,2.0,6.0,52,0.00,,---,0.00,VWS V14.00,2013-06-03 19:56:00,
2013-06-03 15:01:00,76.0,57.1,29.99,NW,304,5.0,12.0,52,0.00,,---,0.00,VWS V14.00,2013-06-03 20:01:00,
2013-06-03 15:07:00,75.7,57.9,29.99,NW,323,4.0,7.0,54,0.00,,---,0.00,VWS V14.00,2013-06-03 20:07:00,
2013-06-03 15:11:00,74.8,58.1,29.99,NNW,328,3.0,3.0,56,0.00,,---,0.00,VWS V14.00,2013-06-03 20:11:00,
2013-06-03 15:17:00,75.1,58.3,29.99,NW,314,3.0,7.0,56,0.00,,---,0.00,VWS V14.00,2013-06-03 20:17:00,
2013-06-03 15:22:00,75.5,57.7,29.99,NW,312,2.0,6.0,54,0.00,,---,0.00,VWS V14.00,2013-06-03 20:22:00,
2013-06-03 15:27:00,76.1,58.8,29.99,WNW,303,6.0,8.0,55,0.00,,---,0.00,VWS V14.00,2013-06-03 20:27:00,
2013-06-03 15:32:00,75.4,57.1,29.98,NNE,12,1.0,7.0,53,0.00,,---,0.00,VWS V14.00,2013-06-03 20:32:00,
2013-06-03 15:37:00,75.1,58.3,29.98,NNW,330,0.0,5.0,56,0.00,,---,0.00,VWS V14.00,2013-06-03 20:37:00,
2013-06-03 15:42:00,74.4,56.2,29.98,NW,326,2.0,4.0,53,0.00,,---,0.00,VWS V14.00,2013-06-03 20:42:00,
2013-06-03 15:47:00,73.9,56.7,29.98,North,356,1.0,4.0,55,0.00,,---,0.00,VWS V14.00,2013-06-03 20:47:00,
2013-06-03 15:52:00,74.4,57.7,29.97,NNE,19,2.0,3.0,56,0.00,,---,0.00,VWS V14.00,2013-06-03 20:52:00,
2013-06-03 15:58:00,73.9,54.7,29.97,NNE,22,3.0,4.0,51,0.00,,---,0.00,VWS V14.00,2013-06-03 20:58:00,
2013-06-03 16:03:00,74.0,56.3,29.97,North,360,2.0,2.0,54,0.00,,---,0.00,VWS V14.00,2013-06-03 21:03:00,
2013-06-03 16:08:00,74.9,58.7,29.97,North,356,6.0,6.0,57,0.00,,---,0.00,VWS V14.00,2013-06-03 21:08:00,
2013-06-03 16:13:00,74.9,57.2,29.97,NW,321,0.0,5.0,54,0.00,,---,0.00,VWS V14.00,2013-06-03 21:13:00,
2013-06-03 16:18:00,75.5,57.7,29.97,NNW,331,1.0,4.0,54,0.00,,---,0.00,VWS V14.00,2013-06-03 21:18:00,
2013-06-03 16:23:00,76.5,59.7,29.96,WNW,301,2.0,5.0,56,0.00,,---,0.00,VWS V14.00,2013-06-03 21:23:00,
2013-06-03 16:28:00,76.0,54.9,29.96,WSW,248,0.0,3.0,48,0.00,,---,0.00,VWS V14.00,2013-06-03 21:28:00,
2013-06-03 16:33:00,76.2,56.8,29.96,NW,314,1.0,5.0,51,0.00,,---,0.00,VWS V14.00,2013-06-03 21:33:00,
2013-06-03 16:38:00,76.7,58.3,29.96,NNW,340,3.0,7.0,53,0.00,,---,0.00,VWS V14.00,2013-06-03 21:38:00,
2013-06-03 16:43:00,76.8,57.3,29.96,West,270,2.0,4.0,51,0.00,,---,0.00,VWS V14.00,2013-06-03 21:43:00,
2013-06-03 16:48:00,76.8,58.4,29.96,WNW,283,2.0,5.0,53,0.00,,---,0.00,VWS V14.00,2013-06-03 21:48:00,
2013-06-03 16:53:00,76.4,55.8,29.96,NNW,333,3.0,6.0,49,0.00,,---,0.00,VWS V14.00,2013-06-03 21:53:00,
2013-06-03 16:58:00,75.8,55.3,29.96,SW,233,1.0,4.0,49,0.00,,---,0.00,VWS V14.00,2013-06-03 21:58:00,
2013-06-03 17:03:00,75.8,56.9,29.96,West,280,1.0,7.0,52,0.00,,---,0.00,VWS V14.00,2013-06-03 22:03:00,
2013-06-03 17:09:00,75.9,57.6,29.97,WSW,248,5.0,6.0,53,0.00,,---,0.00,VWS V14.00,2013-06-03 22:09:00,
2013-06-03 17:14:00,75.4,57.1,29.97,West,272,3.0,8.0,53,0.00,,---,0.00,VWS V14.00,2013-06-03 22:14:00,
2013-06-03 17:19:00,76.0,58.2,29.97,West,262,4.0,5.0,54,0.00,,---,0.00,VWS V14.00,2013-06-03 22:19:00,
2013-06-03 17:24:00,75.7,56.8,29.96,North,349,3.0,5.0,52,0.00,,---,0.00,VWS V14.00,2013-06-03 22:24:00,
2013-06-03 17:29:00,76.1,57.8,29.96,West,266,1.0,4.0,53,0.00,,---,0.00,VWS V14.00,2013-06-03 22:29:00,
2013-06-03 17:34:00,76.4,57.0,29.96,WNW,287,0.0,5.0,51,0.00,,---,0.00,VWS V14.00,2013-06-03 22:34:00,
2013-06-03 17:39:00,76.4,55.8,29.96,NW,311,2.0,4.0,49,0.00,,---,0.00,VWS V14.00,2013-06-03 22:39:00,
2013-06-03 17:44:00,76.0,55.5,29.96,North,349,5.0,6.0,49,0.00,,---,0.00,VWS V14.00,2013-06-03 22:44:00,
2013-06-03 17:49:00,75.5,57.2,29.96,NW,305,4.0,5.0,53,0.00,,---,0.00,VWS V14.00,2013-06-03 22:49:00,
2013-06-03 17:54:00,75.0,57.8,29.96,WSW,255,3.0,7.0,55,0.00,,---,0.00,VWS V14.00,2013-06-03 22:54:00,
2013-06-03 17:59:00,74.7,56.5,29.96,NNW,338,2.0,5.0,53,0.00,,---,0.00,VWS V14.00,2013-06-03 22:59:00,
2013-06-03 18:04:00,74.2,56.5,29.96,North,351,2.0,6.0,54,0.00,,---,0.00,VWS V14.00,2013-06-03 23:04:00,
2013-06-03 18:09:00,73.9,57.7,29.96,NNW,340,3.0,3.0,57,0.00,,---,0.00,VWS V14.00,2013-06-03 23:09:00,
2013-06-03 18:14:00,73.5,56.9,29.97,NNW,330,3.0,4.0,56,0.00,,---,0.00,VWS V14.00,2013-06-03 23:14:00,
2013-06-03 18:19:00,73.6,57.0,29.97,NW,307,3.0,5.0,56,0.00,,---,0.00,VWS V14.00,2013-06-03 23:19:00,
2013-06-03 18:24:00,74.1,58.4,29.97,NNE,17,4.0,7.0,58,0.00,,---,0.00,VWS V14.00,2013-06-03 23:24:00,
2013-06-03 18:29:00,74.1,56.9,29.97,NW,312,4.0,6.0,55,0.00,,---,0.00,VWS V14.00,2013-06-03 23:29:00,
2013-06-03 18:34:00,73.7,57.0,29.97,WNW,297,3.0,7.0,56,0.00,,---,0.00,VWS V14.00,2013-06-03 23:34:00,
2013-06-03 18:39:00,73.5,57.3,29.97,WNW,288,2.0,6.0,57,0.00,,---,0.00,VWS V14.00,2013-06-03 23:39:00,
2013-06-03 18:44:00,73.1,57.5,29.97,West,266,1.0,5.0,58,0.00,,---,0.00,VWS V14.00,2013-06-03 23:44:00,
2013-06-03 18:49:00,72.7,58.0,29.97,NW,319,1.0,5.0,60,0.00,,---,0.00,VWS V14.00,2013-06-03 23:49:00,
2013-06-03 18:54:00,72.6,57.9,29.97,North,9,1.0,3.0,60,0.00,,---,0.00,VWS V14.00,2013-06-03 23:54:00,
2013-06-03 18:59:00,72.3,59.0,29.97,NNE,25,2.0,3.0,63,0.00,,---,0.00,VWS V14.00,2013-06-03 23:59:00,
2013-06-03 19:04:00,72.3,58.1,29.98,NW,308,3.0,3.0,61,0.00,,---,0.00,VWS V14.00,2013-06-04 00:04:00,
2013-06-03 19:09:00,72.2,58.0,29.97,WNW,290,2.0,5.0,61,0.00,,---,0.00,VWS V14.00,2013-06-04 00:09:00,
2013-06-03 19:14:00,72.2,57.6,29.97,NNW,338,0.0,3.0,60,0.00,,---,0.00,VWS V14.00,2013-06-04 00:14:00,
2013-06-03 19:19:00,71.9,57.7,29.97,NNW,329,0.0,3.0,61,0.00,,---,0.00,VWS V14.00,2013-06-04 00:19:00,
2013-06-03 19:24:00,71.6,57.9,29.98,NNE,16,0.0,3.0,62,0.00,,---,0.00,VWS V14.00,2013-06-04 00:24:00,
2013-06-03 19:29:00,71.3,58.1,29.97,NNW,347,0.0,4.0,63,0.00,,---,0.00,VWS V14.00,2013-06-04 00:29:00,
2013-06-03 19:34:00,70.9,57.7,29.98,NNE,13,2.0,4.0,63,0.00,,---,0.00,VWS V14.00,2013-06-04 00:34:00,
2013-06-03 19:39:00,70.2,57.5,29.98,NNW,342,1.0,4.0,64,0.00,,---,0.00,VWS V14.00,2013-06-04 00:39:00,
2013-06-03 19:44:00,69.4,56.7,29.98,WNW,301,1.0,3.0,64,0.00,,---,0.00,VWS V14.00,2013-06-04 00:44:00,
2013-06-03 19:49:00,68.8,56.6,29.98,NNE,20,2.0,2.0,65,0.00,,---,0.00,VWS V14.00,2013-06-04 00:49:00,
2013-06-03 19:54:00,68.3,56.1,29.98,NNE,22,2.0,3.0,65,0.00,,---,0.00,VWS V14.00,2013-06-04 00:54:00,
2013-06-03 19:59:00,67.9,56.5,29.98,NNW,328,1.0,4.0,67,0.00,,---,0.00,VWS V14.00,2013-06-04 00:59:00,
2013-06-03 20:04:00,67.5,56.6,29.98,NNE,16,3.0,3.0,68,0.00,,---,0.00,VWS V14.00,2013-06-04 01:04:00,
2013-06-03 20:09:00,67.2,56.7,29.99,North,353,0.0,3.0,69,0.00,,---,0.00,VWS V14.00,2013-06-04 01:09:00,
2013-06-03 20:14:00,66.7,56.6,29.99,NNW,327,2.0,2.0,70,0.00,,---,0.00,VWS V14.00,2013-06-04 01:14:00,
2013-06-03 20:19:00,66.4,56.7,29.99,NNE,13,1.0,5.0,71,0.00,,---,0.00,VWS V14.00,2013-06-04 01:19:00,
2013-06-03 20:24:00,66.2,56.9,29.99,North,1,2.0,4.0,72,0.00,,---,0.00,VWS V14.00,2013-06-04 01:24:00,
2013-06-03 20:29:00,65.9,56.6,29.99,NNW,345,3.0,4.0,72,0.00,,---,0.00,VWS V14.00,2013-06-04 01:29:00,
2013-06-03 20:34:00,65.7,56.8,29.99,NNE,29,1.0,3.0,73,0.00,,---,0.00,VWS V14.00,2013-06-04 01:34:00,
2013-06-03 20:39:00,65.4,56.5,30.00,North,8,1.0,4.0,73,0.00,,---,0.00,VWS V14.00,2013-06-04 01:39:00,
2013-06-03 20:44:00,65.3,56.4,30.00,North,9,1.0,4.0,73,0.00,,---,0.00,VWS V14.00,2013-06-04 01:44:00,
2013-06-03 20:49:00,65.2,56.7,30.00,NNW,342,0.0,3.0,74,0.00,,---,0.00,VWS V14.00,2013-06-04 01:49:00,
2013-06-03 20:54:00,64.9,56.4,30.00,NNE,15,0.0,2.0,74,0.00,,---,0.00,VWS V14.00,2013-06-04 01:54:00,
2013-06-03 20:59:00,64.6,56.5,30.00,NW,319,0.0,3.0,75,0.00,,---,0.00,VWS V14.00,2013-06-04 01:59:00,
2013-06-03 21:04:00,64.4,56.3,30.00,NNE,15,2.0,3.0,75,0.00,,---,0.00,VWS V14.00,2013-06-04 02:04:00,
2013-06-03 21:09:00,64.3,56.6,30.01,NNE,13,2.0,3.0,76,0.00,,---,0.00,VWS V14.00,2013-06-04 02:09:00,
2013-06-03 21:14:00,64.1,56.4,30.01,NNW,347,0.0,3.0,76,0.00,,---,0.00,VWS V14.00,2013-06-04 02:14:00,
2013-06-03 21:19:00,63.5,56.2,30.01,North,5,0.0,1.0,77,0.00,,---,0.00,VWS V14.00,2013-06-04 02:19:00,
2013-06-03 21:24:00,63.0,56.0,30.01,North,5,0.0,0.0,78,0.00,,---,0.00,VWS V14.00,2013-06-04 02:24:00,
2013-06-03 21:29:00,62.7,56.1,30.01,North,4,0.0,1.0,79,0.00,,---,0.00,VWS V14.00,2013-06-04 02:29:00,
2013-06-03 21:34:00,62.5,56.2,30.01,North,4,0.0,0.0,80,0.00,,---,0.00,VWS V14.00,2013-06-04 02:34:00,
2013-06-03 21:39:00,62.3,56.1,30.02,NW,318,0.0,1.0,80,0.00,,---,0.00,VWS V14.00,2013-06-04 02:39:00,
2013-06-03 21:44:00,62.2,56.3,30.02,NW,318,0.0,0.0,81,0.00,,---,0.00,VWS V14.00,2013-06-04 02:44:00,
2013-06-03 21:49:00,62.1,56.2,30.02,NW,318,0.0,0.0,81,0.00,,---,0.00,VWS V14.00,2013-06-04 02:49:00,
2013-06-03 21:54:00,61.7,55.8,30.02,NW,318,0.0,0.0,81,0.00,,---,0.00,VWS V14.00,2013-06-04 02:54:00,
2013-06-03 21:59:00,61.5,55.6,30.02,NW,317,0.0,0.0,81,0.00,,---,0.00,VWS V14.00,2013-06-04 02:59:00,
2013-06-03 22:04:00,61.4,55.9,30.02,NW,318,0.0,0.0,82,0.00,,---,0.00,VWS V14.00,2013-06-04 03:04:00,
2013-06-03 22:09:00,61.3,55.8,30.02,East,97,0.0,1.0,82,0.00,,---,0.00,VWS V14.00,2013-06-04 03:09:00,
2013-06-03 22:14:00,61.2,55.7,30.02,NNW,341,0.0,1.0,82,0.00,,---,0.00,VWS V14.00,2013-06-04 03:14:00,
2013-06-03 22:19:00,61.0,55.5,30.02,NNW,342,0.0,0.0,82,0.00,,---,0.00,VWS V14.00,2013-06-04 03:19:00,
2013-06-03 22:24:00,60.7,55.2,30.02,WNW,285,0.0,1.0,82,0.00,,---,0.00,VWS V14.00,2013-06-04 03:24:00,
2013-06-03 22:29:00,60.6,55.4,30.03,NE,51,0.0,1.0,83,0.00,,---,0.00,VWS V14.00,2013-06-04 03:29:00,
2013-06-03 22:34:00,60.5,55.0,30.03,NE,49,0.0,0.0,82,0.00,,---,0.00,VWS V14.00,2013-06-04 03:34:00,
2013-06-03 22:39:00,60.3,55.1,30.04,NE,50,0.0,0.0,83,0.00,,---,0.00,VWS V14.00,2013-06-04 03:39:00,
2013-06-03 22:44:00,60.0,54.8,30.03,NE,50,0.0,0.0,83,0.00,,---,0.00,VWS V14.00,2013-06-04 03:44:00,
2013-06-03 22:49:00,59.9,55.1,30.03,NE,49,1.0,1.0,84,0.00,,---,0.00,VWS V14.00,2013-06-04 03:49:00,
2013-06-03 22:54:00,60.0,55.2,30.03,ENE,68,0.0,1.0,84,0.00,,---,0.00,VWS V14.00,2013-06-04 03:54:00,
2013-06-03 22:59:00,59.8,54.6,30.03,ENE,68,0.0,0.0,83,0.00,,---,0.00,VWS V14.00,2013-06-04 03:59:00,
2013-06-03 23:01:00,59.7,54.9,30.03,ENE,67,1.0,1.0,84,0.00,,---,0.00,VWS V14.00,2013-06-04 04:01:00,
2013-06-03 23:03:00,59.7,54.9,30.03,NNE,27,1.0,2.0,84,0.00,,---,0.00,VWS V14.00,2013-06-04 04:03:00,
2013-06-03 23:08:00,60.0,55.2,30.03,NNE,27,1.0,1.0,84,0.00,,---,0.00,VWS V14.00,2013-06-04 04:08:00,
2013-06-03 23:13:00,60.0,54.8,30.03,North,4,1.0,1.0,83,0.00,,---,0.00,VWS V14.00,2013-06-04 04:13:00,
2013-06-03 23:18:00,59.9,54.7,30.03,North,4,0.0,1.0,83,0.00,,---,0.00,VWS V14.00,2013-06-04 04:18:00,
2013-06-03 23:23:00,59.6,54.8,30.03,North,4,0.0,0.0,84,0.00,,---,0.00,VWS V14.00,2013-06-04 04:23:00,
2013-06-03 23:28:00,59.4,54.6,30.03,NNW,347,0.0,1.0,84,0.00,,---,0.00,VWS V14.00,2013-06-04 04:28:00,
2013-06-03 23:33:00,59.2,54.4,30.04,NNW,347,0.0,0.0,84,0.00,,---,0.00,VWS V14.00,2013-06-04 04:33:00,
2013-06-03 23:38:00,59.2,54.4,30.03,NNE,12,0.0,1.0,84,0.00,,---,0.00,VWS V14.00,2013-06-04 04:38:00,
2013-06-03 23:43:00,59.2,54.4,30.03,NNE,13,2.0,2.0,84,0.00,,---,0.00,VWS V14.00,2013-06-04 04:43:00,
2013-06-03 23:49:00,59.3,54.5,30.04,NNW,340,0.0,2.0,84,0.00,,---,0.00,VWS V14.00,2013-06-04 04:49:00,
2013-06-03 23:54:00,59.2,54.4,30.03,NNE,15,1.0,1.0,84,0.00,,---,0.00,VWS V14.00,2013-06-04 04:54:00,
2013-06-03 23:59:00,59.1,54.3,30.03,NNE,13,0.0,1.0,84,0.00,,---,0.00,VWS V14.00,2013-06-04 04:59:00,